Powrót do katalogu

COSMOS 1365 FUEL CORE

AktywnyLEO
NORAD 13594·DEBRIS·🇷🇺 Russia

Wystrzelony May 14, 1982 z Baikonur Cosmodrome

Loading…

Następne Przeloty (najbliższe 24 godziny)

TLE

ŚwieżeSource: Space-Track

Epoka: Sep 14, 2026, 11:26 UTC

1 13594U 82043D   26257.47699524 -.00000101  00000-0 -80846-5 0  9992
2 13594  65.0675  73.0167 0063044 308.8424  50.7025 13.93201128258311

Śledź COSMOS 1365 FUEL CORE w czasie rzeczywistym z AllMySat

Download on the App Store